www.pogodaiklimat.ru

Погода и климат >> Архив погоды >> Россия >> Кабардино-Балкария >> Прохладный


ПОГОДА в Прохладный

  • Прогноз погоды в Прохладный
  • Монитор погоды в Прохладный
  • Климат города

АРХИВ ПОГОДЫ в Прохладный

Время (UTC), дата Ветер
(напр.,м/с)
 
Видим.   Явления Облачность Т
(С)
Тd
(С)
f
(%)
Тe
(С)
Тes
(С)
Комфортность P
(гПа)
Po
(гПа)
Тmin
(С)
Tmax
(С)
R
(мм)
R24
(мм)
S
(см)
03 16.09 ЮЗ 1 4000 м дымка 9/3 600 м
[Sc Ac lent Cs]
+16.0 +14.7 92 +17 +17 1013.2 989.7 +15.9
06 16.09 ЮЗ 1 20 км 3/0
[Ci fib]
+22.6 +14.7 61 +26 +33 жарко 1012.0 989.0
09 16.09 В 2 20 км 3/0
[Ci fib]
+29.0 +14.8 42 +31 +42 жарко 1010.2 987.7
12 16.09 В 1 20 км 8/6 600 м
[Cu med, cong Ac trans Ci fib]
+28.8 +13.4 39 +30 +33 жарко 1009.3 986.8
15 16.09 СЗ 4 20 км 10/10 600 м
[Cb cap]
+22.7 +16.6 68 +27 +27 душно 1010.9 988.0 +30.7
18 16.09 З 1 4000 м в посл. час ливневой дождь {гроза} 10/10 600 м
[Cb cap]
+19.5 +18.7 95 +23 +23 комфорт 1014.2 991.0
21 16.09 З 1 4000 м дымка 9/9 600 м
[Sc]
+18.8 +17.4 92 +21 +21 комфорт 1015.1 991.8
00 17.09 СЗ 1 4000 м дымка 10/10 600 м
[Sc]
+18.4 +17.2 93 +20 +20 1015.4 992.1
03 17.09 З 1 4000 м слабый ливневой дождь 10/10 600 м
[Cb cap]
+17.2 +16.6 96 +18 +18 1015.8 992.3 +17.3 8
06 17.09 ЮЗ 2 4000 м дымка {ливн. осадки} 10/10 600 м
[Cb cap]
+18.9 +17.6 92 +21 +21 комфорт 1016.7 993.3 +17.2
09 17.09 З 2 20 км 9/9 600 м
[Cb cap]
+24.0 +15.3 58 +27 +28 жарко 1015.8 992.9
12 17.09 СЗ 2 20 км в посл. час ливневой дождь 10/10 600 м
[Cb cap]
+21.8 +14.7 64 +25 +25 комфорт 1016.0 992.9
15 17.09 Ю 2 20 км 10/10 600 м
[Sc]
+19.8 +16.4 81 +23 +23 комфорт 1017.1 993.8 +25.1 0.5
18 17.09 СЗ 1 20 км 10/10 600 м
[Sc]
+19.0 +14.6 76 +21 +21 комфорт 1018.8 995.4
21 17.09 СЗ 2 20 км 10/10 600 м
[Sc]
+18.3 +8.0 51 +19 +19 1020.2 996.7
00 18.09 З 1 20 км 10/10 600 м
[Sc]
+16.5 +7.0 53 +17 +17 1021.0 997.3
03 18.09 ЮЗ 1 20 км 10/10 600 м
[Sc]
+15.4 +8.4 63 +16 +16 1021.7 997.9 +15.4
06 18.09 З 2 20 км 9/9 600 м
[Cb cap]
+19.1 +6.6 44 +20 +21 1022.6 999.0
09 18.09 З 3 20 км 8/8 600 м
[Cu med, cong]
+22.5 +5.9 34 +23 +25 комфорт 1021.4 998.1
12 18.09 СЗ 2 20 км 4/3 600 м
[Cu med, cong Ci fib]
+23.9 +1.8 23 +23 +27 комфорт 1019.9 996.8
15 18.09 СЗ 1 20 км 6/0
[Ci sp]
+20.2 +1.8 29 +22 +22 комфорт 1020.3 996.8 +24.4
18 18.09 З 1 20 км ясно +13.5 +7.2 66 +14 +14 1022.6 998.6
21 18.09 ЮЗ 1 20 км ясно +10.1 +5.7 74 +10 +10 1023.1 998.8
00 19.09 ЮЗ 1 20 км ясно +8.3 +5.1 80 +8 +8 1023.2 998.8
03 19.09 ЮЗ 2 4000 м дымка ясно +7.9 +6.6 91 +6 +6 1023.6 999.1 +7.7
06 19.09 ЮЗ 2 20 км 3/0
[Cs]
+17.0 +7.3 53 +17 +22 1023.1 999.4
09 19.09 СЗ 2 20 км ясно +24.4 +2.5 24 +24 +35 комфорт 1021.0 997.9
12 19.09 СЗ 2 20 км 4/0
[Cs]
+26.7 -0.2 17 +25 +30 комфорт 1019.6 996.7
15 19.09 СЗ 1 20 км ясно +23.1 +4.0 29 +23 +23 комфорт 1020.2 997.0 +27.1
18 19.09 ЮЗ 1 20 км ясно +17.0 +6.8 51 +18 +18 1022.2 998.5
21 19.09 ЮЗ 2 20 км ясно +12.8 +7.2 69 +12 +12 1022.9 998.8
00 20.09 З 1 20 км ясно +11.3 +7.9 80 +11 +11 1023.0 998.8
03 20.09 ЮЗ 1 20 км ясно +10.4 +8.6 89 +10 +10 1023.4 999.1 +10.4
06 20.09 З 1 20 км ясно +19.5 +8.3 48 +21 +28 комфорт 1022.8 999.3
09 20.09 В 1 20 км ясно +25.0 +6.8 31 +25 +38 комфорт 1020.6 997.6
12 20.09 СВ 2 20 км ясно +27.0 +5.5 25 +26 +32 жарко 1018.7 995.8
15 20.09 СВ 1 20 км ясно +23.5 +5.7 32 +24 +24 комфорт 1018.5 995.4 +27.2
18 20.09 штиль 0 20 км ясно +16.1 +9.8 66 +16 +16 1019.7 996.0
21 20.09 ЮЗ 1 20 км 3/0
[Ci fib]
+13.0 +8.7 75 +13 +13 1019.4 995.4
00 21.09 ЮЗ 1 4000 м дымка ясно +11.4 +9.9 90 +11 +11 1019.2 995.1
03 21.09 З 1 4000 м дымка ясно +10.4 +9.3 93 +10 +10 1019.8 995.6 +10.4
06 21.09 ЮЗ 1 20 км 1/0
[Ci fib]
+19.4 +10.1 55 +22 +27 комфорт 1019.5 996.1 +10.3
09 21.09 СВ 1 20 км 1/0
[Cc]
+27.2 +5.2 25 +26 +39 жарко 1017.9 995.1
12 21.09 В 2 20 км ясно +28.0 +4.1 22 +27 +32 жарко 1017.2 994.4
15 21.09 штиль 0 20 км 1/0
[Cc]
+23.3 +6.0 33 +24 +24 комфорт 1017.5 994.4 +28.9
18 21.09 ЮЗ 1 20 км ясно +16.5 +10.5 68 +17 +17 1018.9 995.3
21 21.09 ЮЗ 1 20 км ясно +12.8 +9.1 78 +13 +13 1019.3 995.3
00 22.09 ЮЗ 1 4000 м дымка ясно +11.2 +9.6 90 +11 +11 1019.3 995.2
03 22.09 З 1 4000 м дымка 3/0
[Cc]
+10.1 +9.0 93 +10 +10 1019.8 995.6 +10.0
06 22.09 Ю 1 20 км ясно +19.3 +10.4 56 +21 +27 комфорт 1019.6 996.2 +10.0
09 22.09 В 3 20 км 3/0
[Cc]
+27.9 +5.4 24 +27 +35 жарко 1017.7 995.0
12 22.09 В 3 20 км 3/0
[Cc]
+29.1 +3.7 20 +27 +32 жарко 1016.1 993.4
15 22.09 СВ 1 20 км 3/0
[Ci sp]
+24.0 +5.8 31 +24 +24 комфорт 1016.2 993.2 +29.3
18 22.09 В 1 20 км 4/0
[Cc]
+19.5 +12.3 63 +22 +22 комфорт 1017.7 994.3
21 22.09 В 1 4000 м дымка ясно +16.1 +15.1 94 +17 +17 1017.6 994.0
00 23.09 В 1 4000 м дымка 10/10 600 м
[Sc]
+15.3 +14.8 97 +16 +16 1017.5 993.9

 

Местоположение метеостанции Прохладный (Кабардино-Балкария, Россия): широта 43.75 долгота 44.05 высота над уровнем моря 200 м.

В архиве по умолчанию представлена погода в Прохладный за последнюю неделю. Архивные данные за месяц целиком и за предыдущие месяцы, начиная с января 2011 года, Вы можете получить, выбрав интересующий диапазон дат из раскрывающегося списка и нажав кнопку "Ввод!".


*Определитесь, кто Вы:
робот инопланетянин человек

Внимание! Время в таблицах - всемирное. Для получения местного времени необходимо прибавить поправку, которая в Прохладный равна 3 ч.

Смотрите также архив погоды в соседних городах и на ближайших метеорологических станциях:

Погода в Нальчике (Кабардино-Балкария, Россия) (42 км)
Погода в Моздоке (Северная Осетия, Россия) (50 км)
Погода в Георгиевске (Ставропольский край, Россия) (64 км)
Погода в Зеленокумске (Ставропольский край, Россия) (77 км)
Погода в Алагире (Северная Осетия, Россия) (77 км)
Погода в Минеральных Водах (Ставропольский край, Россия) (92 км)
Погода в Назрани (Ингушетия, Россия) (93 км)
Погода в Владикавказе (Северная Осетия, Россия) (95 км)
Погода в Тырныаузе (Кабардино-Балкария, Россия) (100 км)
Погода в Рощино (Ставропольский край, Россия) (102 км)

Пояснения к столбцам:

Ветер - указаны скорость ветра в м/с - средняя за 10 мин, порывы в срок и между сроками (в фигурных скобках) и направление, откуда дует ветер: С - северный, СВ - северо-восточный, В - восточный, ЮВ - юго-восточный, Ю - южный, ЮЗ - юго-западный, З - западный, СЗ - северо-западный.
Видимость - горизонтальная дальность видимости в метрах или километрах. При видимости от 1 до 10 км при отсутствии осадков обычно наблюдается дымка, при ухудшении видимости до 1 км и менее - туман. В сухую погоду видимость может ухудшаться дымом, пылью или мглою.
Явления - указаны атмосферные явления, наблюдавшиеся в срок или в последний час перед сроком; фигурными скобками обозначены явления, наблюдавшиеся между сроками (за 1-3 часа до срока); квадратными скобками обозначены град или гололедные отложения с указанием их диаметра в мм.
Облачность - указаны через наклонную черту общая и нижняя облачность в баллах и высота нижней границы облаков в метрах; квадратными скобками обозначены формы облаков: Ci - перистые, Cs - перисто-слоистые, Cc - перисто-кучевые, Ac - высококучевые, As - высокослоистые, Sc - слоисто-кучевые, Ns - слоисто-дождевые, Cu - кучевые, Cb - кучево-дождевые. Подробнее классификацию облаков см. в Атласе облаков (PDF).
T - Температура воздуха - температура, измеренная на высоте 2 м над землей.
Td - Температура точки росы - температура, при понижении до которой содержащийся в воздухе водяной пар достигнет насыщения.
f - Относительная влажность воздуха - влажноcть воздуха, измеренная на высоте 2 м над землей.
Te - Эффективная температура - температура, которую ощущает одетый по сезону человек в тени. Характеристика душности погоды. При расчете учитывается влияние влажности воздуха и скорости ветра на теплоощущения человека.
Tes - Эффективная температура на солнце - температура, которую ощущает человек, с поправкой на солнечный нагрев. Характеристика знойности погоды. Зависит от высоты солнца над горизонтом, облачности и скорости ветра. Ночью, в пасмурную погоду, а также при ветре 12 м/с и более поправка равна нулю.
P - Атмосферное давление - приведенное к уровню моря атмосферное давление.
Po - Атмосферное давление - измеренное на уровне метеостанции атмосферное давление.
Tmin - Минимальная температура - минимум температуры воздуха на высоте 2 м над землей.
Tmax - Максимальная температура - максимум температуры воздуха на высоте 2 м над землей.
R - Количество осадков - Количество выпавших осадков за период времени, мм. При наведении курсора мыши на число - период времени, за который выпало указанное количество осадков.
R24 - Количество осадков - Количество выпавших осадков за 24 часа, мм.
S - Снежный покров - Высота снежного покрова, см. При наведении курсора мыши на число - состояние снежного покрова и степень покрытия местности в баллах.